Regional Weather Roundup
Issued by NWS

Home | Current Version | Previous Version | Text Only | Print | Product List | Glossary On
Versions: 1 2 3 4 5 6 7 8 9 10 11 12 13 14 15 16 17 18 19 20 21 22 23 24 25 26 27 28 29 30 31 32 33 34 35 36 37 38 39 40 41 42 43 44 45 46 47 48 49 50
000
ASUS43 KMPX 230701
RWRMN
WEATHER ROUNDUP FOR MINNESOTA
NATIONAL WEATHER SERVICE TWIN CITIES/CHANHASSEN MN
200 AM CDT MON OCT 23 2017


NOTE: "FAIR" INDICATES FEW OR NO CLOUDS BELOW 12,000 FEET WITH NO
SIGNIFICANT WEATHER AND/OR OBSTRUCTIONS TO VISIBILITY. N/A MEANS
CURRENT SKY AND/OR WEATHER CONDITIONS ARE NOT AVAILABLE.

MNZ060>063-068>070-230800-
   Twin Cities Metro

CITY           SKY/WX    TMP DP  RH WIND       PRES   REMARKS
TWIN CITIES    CLOUDY    56  35  45 S7        29.85S
ST PAUL        CLOUDY    53  37  54 S8        29.86F
CRYSTAL        CLOUDY    57  31  37 S10G20    29.81F
BLAINE         CLOUDY    55  36  47 S12       29.82F
LAKEVILLE      CLOUDY    52  36  54 S9G18     29.85F
EDEN PRAIRIE   CLOUDY    56  34  43 S9        29.82F
SOUTH ST PAUL  CLOUDY    54  35  48 S7        29.85S
LAKE ELMO      MOCLDY    52  36  54 S15       29.85F
$$
MNZ001>005-007-008-013>017-022>024-027-028-230800-
   Northwest Minnesota

CITY           SKY/WX    TMP DP  RH WIND       PRES   REMARKS
BEMIDJI        CLEAR     52  33  48 S9G16     29.64S
HALLOCK        CLOUDY    48  39  71 S6        29.52S
ROSEAU         CLOUDY    50  39  66 S9        29.54F
WARROAD        MOCLDY    50  41  71 S6        29.56F
CROOKSTON      LGT RAIN  50  48  93 SW13      29.61R
FOSSTON        LGT RAIN  48  43  81 S14       29.63R
DETROIT LAKES  CLOUDY    54  43  66 SW9       29.66F
MOORHEAD       CLOUDY    54  37  54 S7        29.64S
PARK RAPIDS    MOCLDY    52  37  56 SW8       29.67F
MAHNOMEN       CLOUDY    50  43  77 S8        29.63F
$$
MNZ006-009>011-018-025>026-230800-
   North Central Minnesota

CITY           SKY/WX    TMP DP  RH WIND       PRES   REMARKS
BAUDETTE       PTCLDY    50  35  56 S8        29.59F
FLAG ISLAND    CLOUDY    52  45  76 S10       29.55F
INTL FALLS     CLOUDY    53  34  48 S5        29.63F
WASKISH        PTCLDY    54  34  47 S8        29.61F
BIG FORK       CLOUDY    54  34  47 S9        29.66F
LONGVILLE      PTCLDY    52  36  54 S6        29.69S
GRAND RAPIDS   CLOUDY    53  35  50 S13       29.71F
CRANE LAKE     CLOUDY    52  30  43 S6        29.70F
ORR            CLOUDY    52  30  43 S9        29.66F
COOK           CLOUDY    54  34  47 S8        29.70F
WALKER         PTSUNNY   53  34  49 S10       29.66S
$$
MNZ012-019>021-037-230800-
   Northeast Minnesota

CITY           SKY/WX    TMP DP  RH WIND       PRES   REMARKS
DULUTH         LGT RAIN  52  34  50 S15       29.77F
ELY            CLOUDY    52  30  43 S12       29.73F
HIBBING        CLOUDY    51  31  46 S7G20     29.72F
EVELETH        CLOUDY    53  18  25 S9        29.74F
DULUTH HARBOR  CLOUDY    55  37  50 SW7       29.80S
TWO HARBORS    CLOUDY    52  39  62 S3        29.77F
SILVER BAY     CLOUDY    46  41  81 CALM      29.78F
G MARAIS ARPRT CLOUDY    48  34  57 S8        29.81F
$$
MNZ029>031-032-039>041-046>048-054>057-064-230800-
   West Central Minnesota

CITY           SKY/WX    TMP DP  RH WIND       PRES   REMARKS
FERGUS FALLS   CLOUDY    55  39  54 SW10      29.69F
WHEATON        PTCLDY    61  37  41 SW16G23   29.73S
MORRIS         CLOUDY    54  37  54 SW10      29.73S
ALEXANDRIA     CLOUDY    54  36  50 S13       29.74F
ELBOW LAKE     MOCLDY    54  37  52 W12G21    29.72S
WADENA         MOCLDY    54  37  54 SW8       29.69F
GLENWOOD       LGT RAIN  52  36  54 S10       29.76S
APPLETON       CLOUDY    57  34  41 SW10G16   29.75S
BENSON         DRIZZLE   50  37  62 SW9       29.78R
ORTONVILLE     MOCLDY    61  37  41 W17G25    29.75S
MADISON        CLOUDY    59  36  41 W6        29.76S
WILLMAR        CLOUDY    52  37  58 S5        29.79F
$$
MNZ033>034-036-042>043-049>051-058-059-230800-
   Central Minnesota

CITY           SKY/WX    TMP DP  RH WIND       PRES   REMARKS
ST CLOUD       CLOUDY    52  37  56 S8        29.79S
SAUK CENTRE    CLOUDY    49  37  61 S9        29.75F
PAYNESVILLE    MOCLDY    51  37  56 S6        29.78S
AITKIN         PTCLDY    52  36  54 S9        29.71F
PINE RIVER     MOCLDY    50  36  57 S5        29.74S
BRAINERD       CLOUDY    54  34  46 S15       29.73F
STAPLES        CLOUDY    52  34  50 S10       29.70F
LONG PRAIRIE   CLOUDY    50  34  53 SE10      29.74F
LITTLE FALLS   CLOUDY    52  28  40 S7        29.76S
LITCHFIELD     PTCLDY    54  37  54 CALM      29.80S
BUFFALO        CLOUDY    55  34  44 S10G17    29.81F
MAPLE LAKE     CLOUDY    55  39  55 S6        29.80F
HUTCHINSON     CLOUDY    51  38  61 S6        29.81F
$$
MNZ037-044-045-052-053-230800-
   East Central Minnesota

CITY           SKY/WX    TMP DP  RH WIND       PRES   REMARKS
PRINCETON      CLOUDY    55  36  47 S7        29.79F
MORA           CLOUDY    52  34  50 S8        29.80F
CAMBRIDGE      MOCLDY    57  37  47 SE8       29.80F
RUSH CITY      CLOUDY    53  35  50 S12       29.81F
MOOSE LAKE     CLOUDY    52  32  46 S7        29.76F
HINCKLEY       CLOUDY    54  36  50 S8        29.80F
CLOQUET        CLOUDY    54  30  40 S7        29.76F
MCGREGOR       CLOUDY    52  34  50 S9        29.74F
$$
MNZ071>073-080-081-089-090-097-098-230800-
   Southwest Minnesota

CITY           SKY/WX    TMP DP  RH WIND       PRES   REMARKS
MONTEVIDEO     CLOUDY    54  36  50 SW15      29.76F
GRANITE FALLS  CLOUDY    52  39  59 S7        29.79F
CANBY          CLOUDY    57  33  40 SW13      29.77F
MARSHALL       MOCLDY    56  33  42 SW14      29.78F
REDWOOD FALLS  CLEAR     51  34  52 S8        29.79F
OLIVIA         CLEAR     50  36  57 S7        29.79S
PIPESTONE      PTCLDY    46  32  57 S5        29.80F
WORTHINGTON    CLEAR     49  32  52 S10       29.83F
JACKSON        CLEAR     46  34  61 S10       29.84F
TRACY          CLOUDY    54  35  47 SW13      29.81S
SLAYTON        PTCLDY    49  32  51 S9        29.82S
$$
MNZ065>067-074>077-082>085-091>093-230800-
   South Central Minnesota

CITY           SKY/WX    TMP DP  RH WIND       PRES   REMARKS
MANKATO        PTCLDY    51  35  54 S10       29.84F
NEW ULM        CLOUDY    52  36  54 S12       29.81F
ST JAMES       CLOUDY    52  36  54 S14       29.83F
FAIRMONT       CLOUDY    50  36  58 S14       29.85F
GLENCOE        PTCLDY    54  36  50 S8        29.80F
FARIBAULT      CLOUDY    50  37  62 S7        29.87F
OWATONNA       DRIZZLE   50  37  62 S15       29.87F
WASECA         CLOUDY    54  32  43 S13G21    29.87F
$$
MNZ078>079-086>088-094>096-230800-
   Southeast Minnesota

CITY           SKY/WX    TMP DP  RH WIND       PRES   REMARKS
ROCHESTER      PTCLDY    46  40  79 S14       29.91F
RED WING       CLOUDY    54  37  54 CALM      29.89S
STANTON        RAIN      53  38  56 S13       29.86S
DODGE CENTER   MOCLDY    48  37  66 S15       29.90S
WINONA         CLEAR     48  43  81 SE6       29.94F
AUSTIN         PTCLDY    45  39  81 S6        29.91F
PRESTON        CLEAR     45  40  82 S9        29.94F
$$
ABBREVIATIONS USED IN REMARKS
   TC - TEMPERATURES IN CELSIUS
  WCI - WIND CHILL INDEX
   HX - HEAT INDEX
  VSB - VISIBILITY
$$



USA.gov is the U.S. government's official web portal to all federal, state and local government web resources and services.